Location: Fairlight
(50.8833°N, 0.6333°E)
Time: 23:29:15
(UTC+00:00)

Daily predictions for brighter satellites

Satellite Brightness Start Highest point End
(mag) Time Altitude Azimuth Time Altitude Azimuth Time Altitude Azimuth
Cosmos 1763 Rocket 4.3 16:23:28 10° SSE 16:27:56 32° ESE 16:32:28 10° NE
Cosmos 1656 3.8 16:23:57 10° NNW 16:29:31 87° WSW 16:35:07 10° SSE
CZ-4B R/B 3.0 16:25:38 10° SE 16:29:32 50° ENE 16:33:15 10° N
USA 229 DEB 4.0 16:26:55 10° NW 16:34:11 83° NE 16:41:57 10° SE
USA 229 3.9 16:27:00 10° NW 16:34:16 83° NE 16:42:03 10° SE
Cosmos 1937 Rocket 3.8 16:30:42 10° NNW 16:35:51 45° ENE 16:40:56 10° SE
Cosmos 1464 Rocket 4.1 16:29:58 10° S 16:36:18 72° E 16:42:40 10° NNE
Cosmos 1461 4.4 16:35:19 10° W 16:38:54 27° NW 16:42:24 10° NNE
Cosmos 1500 Rocket 3.7 16:34:35 10° N 16:38:58 53° ENE 16:43:16 10° SSE
Cosmos 1666 4.4 16:37:12 10° NE 16:38:59 13° ENE 16:40:45 10° E
SL-16 R/B 4.3 16:34:15 10° N 16:39:20 27° NW 16:44:23 10° WSW
Nadezhda 4 Rocket 4.0 16:34:24 10° N 16:40:45 73° E 16:47:04 10° SSE
SL-24 R/B - RUBIN 2 3.9 16:36:44 10° NW 16:41:14 45° NE 16:45:27 10° ESE
Cosmos 2322 Rocket 3.7 16:38:35 10° N 16:42:11 17° NNE 16:45:47 10° ENE
SeaSat 1 3.5 16:37:36 10° NNE 16:42:15 42° NW 16:46:52 10° WSW
ATLAS 2AS CENTAUR R/B 3.9 16:35:44 10° W 16:42:50 37° NNW 16:49:38 10° NE
Cosmos 990 Rocket 4.0 16:37:39 10° NNW 16:42:53 84° ENE 16:48:04 10° SSE
Cosmos 1697 Rocket 2.7 16:39:32 10° NNW 16:45:10 69° ENE 16:50:46 10° SE
Cosmos 372 Rocket 4.5 16:42:07 10° NNW 16:47:00 38° NE 16:51:53 10° ESE
FengYun 1-2 T 4.2 16:41:44 10° SSE 16:47:16 67° ENE 16:52:47 10° N
Cosmos 1271 Rocket 3.9 16:44:27 10° SSW 16:48:15 45° WNW 16:52:07 10° N
Sich 1 3.7 16:44:43 10° N 16:48:37 32° ENE 16:52:30 10° SE
NOSS 2-1 (C) 4.1 16:46:20 10° W 16:49:19 33° NW 16:52:32 10° NNE
Cosmos 1980 Rocket 2.5 16:43:55 10° NNW 16:49:23 44° NE 16:54:46 10° ESE
NOAA 6 4.1 16:45:37 10° SE 16:50:39 57° ENE 16:55:41 10° N
Cosmos 1805 Rocket 3.9 16:46:32 10° N 16:50:41 42° ENE 16:54:48 10° SE
Cosmos 2369 3.8 16:45:43 10° NNW 16:51:22 55° NE 16:56:59 10° SE
Cosmos 2221 2.5 16:48:09 10° S 16:52:25 87° W 16:56:47 10° N
CZ-4C R/B 3.0 16:48:52 10° NW 16:55:32 55° NE 17:03:29 10° ESE
Cosmos 1092 Rocket 4.1 16:50:19 10° N 16:56:38 60° ENE 17:02:52 10° SSE
USA 234 3.4 16:50:17 10° ESE 16:56:51 84° SSW 17:03:26 10° WNW
Cosmos 1842 Rocket 3.6 16:52:50 10° S 16:57:18 90° WSW 17:01:50 10° N
Cosmos 2084 4.3 16:53:16 10° NW 16:57:28 56° SW 17:01:50 10° SSE
NOSS 3-1 (A) 4.4 16:50:23 10° NW 16:57:44 76° SW 17:06:23 10° SSE
NOSS 2-1 (D) 4.4 16:55:48 10° W 16:58:41 29° NNW 17:01:50 10° NNE
USA 306 3.2 16:55:58 10° W 17:00:10 56° N 17:03:35 15° ENE
SL-16 R/B 3.4 16:55:57 10° NNW 17:00:25 23° NE 17:04:15 12° E
Cosmos 1812 4.2 16:58:53 10° SE 17:01:26 17° E 17:02:43 15° ENE
ISS -3.6 16:58:02 10° WNW 17:01:27 77° SSW 17:04:51 10° ESE
Meteor 1-25 Rocket 4.1 16:56:47 10° N 17:02:22 73° ENE 17:07:58 10° SSE
NOSS 2-2 (D) 4.2 16:58:35 10° NW 17:03:25 69° NE 17:10:10 10° SE
NOSS 2-2 (E) 4.3 16:58:46 10° NW 17:03:46 80° NE 17:10:51 10° SE
deb Chang Zheng 4 4.4 17:02:30 10° ESE 17:06:10 28° ENE 17:09:50 10° N
SMAP 3.0 17:01:57 10° SSE 17:06:36 76° ENE 17:11:16 10° NNW
Cosmos 2082 Rocket 3.1 17:02:07 10° SSE 17:06:54 29° ESE 17:10:43 14° NE
Meteor PRIRODA 4.3 17:03:41 10° S 17:07:16 59° WSW 17:10:53 10° NNW
Cosmos 1939 Rocket 2.8 17:03:42 10° SSE 17:07:48 83° ENE 17:11:54 10° NNW
Cosmos 858 Rocket 4.5 17:03:06 10° NNW 17:08:25 72° ENE 17:13:40 10° SSE
CORIOLIS 4.1 17:04:13 10° SSE 17:09:36 73° ENE 17:15:03 10° NNW
Cosmos 2333 Rocket 4.0 17:07:49 10° N 17:10:34 13° NNE 17:12:25 12° NE
Cosmos 44 Rocket 4.0 17:06:02 10° NNW 17:10:38 35° NE 17:14:23 14° E
Cosmos 2278 3.9 17:09:51 10° NNW 17:15:26 50° NE 17:20:56 10° SE
Cosmos 1602 3.6 17:12:06 10° N 17:15:58 74° ENE 17:19:50 10° SSE
CZ-4B DEB 4.1 17:10:30 10° SSE 17:15:59 73° ENE 17:21:29 10° NNW
Cosmos 1627 Rocket 4.4 17:11:56 10° N 17:18:09 71° ENE 17:24:15 10° SSE
USA 307 3.2 17:14:44 10° W 17:18:58 55° N 17:21:38 21° ENE
AQUARIUS 4.1 17:16:01 10° SSE 17:20:30 86° ENE 17:25:02 10° NNW
Cosmos 540 Rocket 3.6 17:16:50 10° S 17:21:47 53° ESE 17:26:07 14° NE
Cosmos 2034 Rocket 4.1 17:17:07 10° SSW 17:23:16 77° WNW 17:29:28 10° N
COSMO-SKYMED 1 3.5 17:23:24 20° ENE 17:25:13 27° E 17:28:53 10° SSE
ARGOS 3.5 17:21:10 10° SE 17:26:13 42° ENE 17:31:16 10° N
Cosmos 2279 Rocket 4.4 17:21:23 10° SSE 17:27:05 40° E 17:32:48 10° NNE
COSMOS 2406 3.3 17:21:44 10° SSW 17:27:23 62° ESE 17:32:09 15° NE
SL-08 R/B 4.2 17:24:03 10° N 17:28:37 49° WNW 17:33:06 10° SW
Cosmos 1833 Rocket 2.6 17:23:03 10° SSW 17:28:40 78° ESE 17:33:42 13° NNE
Meteor 2-21 4.3 17:23:02 10° N 17:29:09 76° E 17:35:12 10° SSE
Cosmos 1782 2.8 17:26:23 10° S 17:30:18 55° E 17:33:48 13° NNE
ATLAS 5 CENTAUR R/B 2.8 17:21:41 10° NW 17:31:11 51° NNE 17:33:09 25° E
Cosmos 1633 Rocket 3.3 17:29:40 10° N 17:33:52 43° ENE 17:38:02 10° SE
Cosmos 1818 3.8 17:29:23 10° NW 17:34:46 51° NE 17:38:50 17° ESE
ATLAS CENTAUR R/B 3.5 17:31:42 10° WNW 17:34:59 20° NNW 17:37:49 12° NNE
Cosmos 2219 Rocket 4.0 17:32:54 10° N 17:35:49 14° NNE 17:36:28 14° NNE
Cosmos 468 Rocket 4.1 17:31:13 10° SSW 17:36:23 78° WNW 17:41:29 11° NNE
YAOGAN 1 3.7 17:39:35 24° NE 17:39:35 24° NE 17:42:13 10° N
ERBS 3.4 17:37:19 10° WNW 17:40:12 29° N 17:41:01 26° NNE
GEOS 3 Rocket 3.9 17:37:58 21° E 17:41:15 47° NE 17:46:12 10° NW
CZ-2D R/B 3.2 17:37:26 10° SSE 17:41:16 89° WSW 17:45:07 10° NNW
USA 308 3.1 17:37:20 10° WNW 17:41:32 55° N 17:43:14 32° ENE
Cosmos 1634 Rocket 3.9 17:37:36 10° S 17:43:55 78° E 17:50:17 10° NNE
SJ-11-01 4.4 17:39:27 10° SE 17:44:04 54° ENE 17:48:42 10° N
COSMOS 2455 2.9 17:38:42 10° SSW 17:44:34 58° ESE 17:48:14 24° NE
CZ-2C R/B 2.8 17:40:35 15° NNE 17:44:43 44° E 17:49:37 10° S
Cosmos 1500 3.2 17:41:44 10° NNW 17:45:30 79° W 17:49:13 10° S
PAYLOAD B 4.3 17:40:12 10° SSE 17:45:49 86° WSW 17:51:28 10° NNW
Cosmos 2026 Rocket 4.1 17:40:47 10° NNW 17:46:57 77° W 17:53:00 10° S
CZ-4B R/B 3.0 17:42:57 10° SSE 17:48:20 74° ENE 17:53:40 10° NNW
Cosmos 1151 Rocket 3.2 17:45:10 10° SSE 17:49:20 50° E 17:51:27 26° NNE
Lacrosse 5 rocket 1.2 17:45:31 10° NW 17:49:23 61° NNE 17:50:36 40° E
Okean O Rocket 1.6 17:47:58 10° SSE 17:52:21 61° ENE 17:56:47 10° N
CZ-4 R/B 3.4 17:59:39 15° N 17:59:39 15° N 18:00:30 10° N
Cosmos 1666 Rocket 3.5 17:55:17 10° N 17:59:47 89° ESE 18:04:11 10° S
Cosmos 2208 Rocket 4.5 17:55:33 10° S 18:00:34 41° ESE 18:01:39 36° ENE
CZ-4 R/B 4.3 17:57:34 10° SSE 18:01:40 70° ENE 18:05:48 10° N
Meteor 1-11 Rocket 4.0 17:56:24 10° N 18:01:43 42° ENE 18:05:45 17° SE
Cosmos 1470 Rocket 3.7 17:58:37 10° N 18:02:58 50° ENE 18:07:18 10° SSE
Cosmos 2150 Rocket 4.1 17:57:58 10° NNW 18:03:00 49° ENE 18:04:48 34° ESE
H-2A R/B 2.3 17:59:23 10° S 18:04:32 67° WSW 18:09:34 10° NNW
USA 267 3.3 18:01:04 28° ENE 18:04:48 81° NNW 18:11:21 10° WSW
Cosmos 1655 Rocket 4.1 17:58:40 10° N 18:04:59 55° ENE 18:11:13 10° SSE
Meteor 1-26 Rocket 4.5 17:59:40 10° SSW 18:05:39 79° WNW 18:11:45 10° N
Cosmos 1328 Rocket 3.6 18:02:32 10° S 18:06:51 54° E 18:07:30 49° ENE
Cosmos 2360 Rocket 3.1 18:02:28 10° NNW 18:07:10 29° NE 18:07:10 29° NE
Landsat 5 4.0 18:08:41 40° SE 18:08:41 40° SE 18:11:45 10° S
USA 305 2.9 18:03:59 10° WNW 18:08:12 62° N 18:08:46 55° NE
Cosmos 1763 Rocket 4.5 18:04:48 10° SW 18:09:38 43° WNW 18:13:56 13° NNE
SKYMED 2 3.4 18:12:01 40° NNE 18:13:31 75° ESE 18:17:52 10° S
Cosmos 1666 2.9 18:11:15 10° NNW 18:14:58 66° W 18:18:38 10° S
Cosmos 2180 Rocket 4.4 18:09:26 10° S 18:15:42 68° E 18:21:57 10° NNE
Cosmos 841 Rocket 3.5 18:10:45 10° SSW 18:15:54 76° WNW 18:18:54 26° NNE
COSMOS 2428 4.4 18:12:48 10° N 18:15:41 17° NNE 18:15:41 17° NNE
Feng Yun 1-1 Rocket 4.3 18:11:56 10° SSE 18:17:48 71° ENE 18:23:38 10° NNW
Meteor 2-8 Rocket 4.3 18:13:11 10° S 18:19:17 70° E 18:25:26 10° NNE
ATLAS CENTAUR R/B 2.2 18:11:46 10° WSW 18:19:52 79° NNW 18:20:43 57° NE
Cosmos 1125 Rocket 3.4 18:15:56 10° NNW 18:21:09 62° ENE 18:22:14 50° ESE
Cosmos 2322 Rocket 2.3 18:22:00 10° NNW 18:27:36 53° NE 18:27:49 53° ENE
NOSS 3-4 (A) 4.4 18:27:12 10° NW 18:33:12 36° NNE 18:33:59 35° NE
NOSS 3-4 (C) 4.4 18:27:18 10° NW 18:33:18 36° NNE 18:34:04 35° NE
Cosmos 1980 Rocket 3.5 18:28:07 10° NW 18:33:21 39° WSW 18:38:31 10° S
SL-08 RB Rocket 3.8 18:31:00 10° S 18:35:39 77° WSW 18:40:17 10° NNW
ATLAS 2AS CENTAUR R/B 3.8 18:29:11 10° NW 18:35:50 31° N 18:37:26 29° NNE
Cosmos 1812 3.7 18:33:06 10° SSW 18:36:49 46° WNW 18:37:47 37° NNW
ISS -1.6 18:35:10 10° W 18:37:56 23° SW 18:37:59 23° SW
USA 306 3.3 18:36:05 10° WNW 18:39:35 56° NW 18:39:35 56° NW
CZ-4C R/B 3.5 18:37:22 10° NW 18:44:23 57° SW 18:52:32 10° SSE
SL-16 R/B 2.0 18:39:39 10° NNW 18:45:23 85° ENE 18:46:11 67° SE
Cosmos 2237 Rocket 4.3 18:45:43 10° N 18:47:00 13° N 18:47:00 13° N
Cosmos 2082 Rocket 2.6 18:45:03 10° SW 18:50:39 59° NW 18:52:35 39° N
Cosmos 44 Rocket 3.8 18:47:35 10° NW 18:52:25 55° WSW 18:53:10 49° SSW
Cosmos 2333 Rocket 3.6 18:51:24 10° NNW 18:54:26 26° N 18:54:26 26° N
USA 307 4.1 18:54:52 10° WNW 18:57:40 40° WNW 18:57:40 40° WNW
COSMO-SKYMED 1 3.8 19:00:37 35° NW 19:01:30 39° WNW 19:05:32 10° SW
Cosmos 1833 Rocket 4.4 19:08:32 10° W 19:13:14 26° NW 19:15:24 21° N
ATLAS CENTAUR R/B 4.2 19:12:50 10° NNW 19:13:56 13° NNW 19:13:56 13° NNW
GEOS 3 Rocket 4.3 19:19:06 48° SW 19:19:18 49° SW 19:24:21 10° NW
Cosmos 2219 Rocket 4.0 19:16:06 10° NNW 19:18:11 21° N 19:18:11 21° N
CZ-2C R/B 4.1 19:22:06 20° NNW 19:24:55 32° WNW 19:29:27 10° SW
Lacrosse 5 rocket 3.8 19:24:43 10° WNW 19:26:13 20° W 19:26:13 20° W
Okean O Rocket 4.3 19:26:01 10° SW 19:29:07 18° W 19:32:13 10° NW
COSMOS 2455 3.9 19:25:11 10° WSW 19:30:48 39° NW 19:31:23 38° NNW
BREEZE-M DEB (TANK) 4.4 19:27:22 10° SW 19:44:57 61° S 19:44:57 61° S
USA 267 3.8 19:48:25 50° NNW 19:48:25 50° NNW 19:53:51 10° W
Cosmos 2360 Rocket 3.8 19:46:15 10° NNW 19:48:57 29° NW 19:48:57 29° NW
Cosmos 2322 Rocket 4.0 20:06:26 10° NW 20:09:40 27° WNW 20:09:40 27° WNW
ATLAS 2AS CENTAUR R/B 4.2 20:21:09 10° NW 20:24:52 30° NNW 20:24:52 30° NNW
